Flag for Canada Weather past 2 weeks in Qikiqtarjuaq, Nunavut Territory, Canada

Now
36 °F

Overcast.


Feels Like: 31 °F
Forecast: 31 / 39 °F
Wind: 6 mph from Southwest

Location: Broughton Island Airport

Current Time: Sep 20, 2014 at 8:56:11 AM

Latest Report: Sep 20, 2014 at 8:00 AM


Visibility: 15 mi

Pressure: 29.65 "Hg

Humidity: 93%

Dew point: 34 °F

Location of QikiqtarjuaqLocation

Historic Weather in Qikiqtarjuaq — Graph

°F

Qikiqtarjuaq temperature yesterday

Maximum temperature yesterday: 39 °F (at 12:00 AM)
Minimum temperature yesterday: 36 °F (at 3:00 AM)
Average temperature yesterday: 36 °F

Past Weeks' High & Low Weather Summary

 TemperatureHumidityPressure
High45 °F (Sep 15, 3:00 PM)100% (Sep 7, 5:54 AM)29.79 "Hg (Sep 7, 5:54 AM)
Low28 °F (Sep 15, 4:00 AM)34% (Sep 14, 3:00 PM)29.32 "Hg (Sep 11, 1:00 AM)
Average37 °F82%29.63 "Hg
* Reported Sep 5 7:00 AM — Sep 20 7:00 AM, Qikiqtarjuaq, Weather by CustomWeather, © 2014

Note: Actual official high and low records may vary slightly from our data, if they occured in-between our weather recording intervals... More about our weather records

Advertising

Qikiqtarjuaq weather history for previous 24 hours

 ConditionsComfort  
Time TempWeatherWind HumidityBarometerVisibility
7:00 AM
Sep 20
36 °FOvercast.3 mph87%29.65 "Hg9 mi
6:00 AM34 °FMostly cloudy.8 mph100%29.66 "Hg9 mi
5:00 AM34 °FMostly cloudy.No wind93%29.67 "Hg9 mi
4:00 AM34 °FMostly cloudy.No wind93%29.67 "Hg9 mi
3:02 AM36 °FPartly cloudy.7 mph87%29.68 "Hg9 mi
2:01 AM36 °FLight rain. Mostly cloudy.3 mph87%29.69 "Hg9 mi
2:00 AM36 °FMostly cloudy.5 mph87%29.69 "Hg9 mi
1:00 AM34 °FPassing clouds.6 mph93%29.69 "Hg9 mi
12:00 AM36 °FPassing clouds.5 mph87%29.70 "Hg9 mi
11:45 PM
Sep 19
36 °FPassing clouds.3 mph87%29.70 "Hg9 mi
11:00 PM36 °FPartly cloudy.8 mph87%29.71 "Hg9 mi
10:00 PM37 °FPassing clouds.12 mph87%29.72 "Hg9 mi
9:00 PM37 °FPassing clouds.14 mph87%29.73 "Hg9 mi
8:46 PM37 °FClear.16 mph87%29.72 "Hg9 mi
8:00 PM36 °FPassing clouds.3 mph93%29.73 "Hg9 mi
7:00 PM36 °FPassing clouds.8 mph93%29.73 "Hg9 mi
6:01 PM37 °FBroken clouds.12 mph87%29.73 "Hg9 mi
5:00 PM37 °FPartly sunny.2 mph93%29.74 "Hg15 mi
4:00 PM37 °FFog.2 mph93%29.74 "Hg15 mi
3:00 PM37 °FFog.3 mph93%29.74 "Hg8 mi
2:00 PM36 °FFog.2 mph100%29.74 "Hg3 mi
1:00 PM36 °FFog.6 mph100%29.73 "Hg1 mi
12:00 PM36 °FFog.6 mph100%29.73 "Hg1 mi
11:00 AM37 °FFog.2 mph93%29.73 "Hg3 mi
10:00 AM36 °FFog.3 mph100%29.74 "Hg2 mi
9:00 AM36 °FFog.8 mph100%29.74 "Hg0 mi
8:00 AM36 °FFog.6 mph93%29.74 "Hg0 mi
Weather by CustomWeather, © 2014

See weather overviewHow to use our weather pages